Location: Unspecified
(52.4292°N, 19.3359°E)
Time: 23:11:57
(UTC+02:00)

SR - Pass Details

Date: 29 May 2024
Orbit: 580 x 858 km, 66.7° (Epoch: 12 June)

Event Time Altitude Azimuth Distance (km) Brightness Sun altitude
Rises 19:53:15 0° 279° (W) 3,076 ? 6.7°
Reaches altitude 10° 19:56:25 10° 299° (WNW) 2,102 ? 6.3°
Maximum altitude 19:59:31 17° 341° (NNW) 1,628 ? 5.9°
Drops below altitude 10° 20:02:31 10° 22° (NNE) 2,004 ? 5.5°
Sets 20:05:27 0° 44° (NE) 2,872 ? 5.1°
